SESAD ESGG-ZZZZ

Flight info

Callsign SESAD
Flight time N/A
Altitude
Route
Aircraft

Departure

Time 2026-05-07 23:03
Airport Göteborg Landvetter Airport (ESGG)

Arrival

Time N/A
Airport ZZZZ
Time Latitude Longitude Altitude Speed Heading
2026-05-07 22:36 57.67033 12.29291 509 ft 0 kts 251°
2026-05-07 22:41 57.67033 12.29292 482 ft 0 kts 250°
2026-05-07 22:49 57.67031 12.29290 509 ft 3 kts 198°
2026-05-07 22:50 57.66995 12.29232 510 ft 0 kts 275°
2026-05-07 22:50 57.67027 12.29136 509 ft 9 kts 298°
2026-05-07 22:50 57.67034 12.29102 508 ft 10 kts 299°
2026-05-07 22:50 57.66978 12.28958 507 ft 19 kts 205°
2026-05-07 22:51 57.66853 12.28843 507 ft 18 kts 206°
2026-05-07 22:51 57.66735 12.28738 506 ft 20 kts 204°
2026-05-07 22:51 57.66600 12.28611 505 ft 24 kts 205°
2026-05-07 22:51 57.66444 12.28472 505 ft 26 kts 206°
2026-05-07 22:52 57.66276 12.28320 504 ft 27 kts 206°
2026-05-07 22:52 57.66144 12.28201 503 ft 17 kts 205°
2026-05-07 22:52 57.66103 12.28114 502 ft 0 kts 269°
2026-05-07 22:55 57.66150 12.27930 502 ft 21 kts 306°
2026-05-07 22:55 57.66282 12.27980 504 ft 53 kts 28°
2026-05-07 22:55 57.66782 12.28421 565 ft 91 kts 23°
2026-05-07 22:56 57.67368 12.28408 767 ft 98 kts 306°
2026-05-07 22:56 57.67061 12.27424 907 ft 100 kts 195°
2026-05-07 22:56 57.66402 12.27114 886 ft 92 kts 125°
2026-05-07 22:56 57.66312 12.28283 736 ft 80 kts 93°
2026-05-07 22:57 57.66463 12.29003 685 ft 56 kts 32°
2026-05-07 22:57 57.66484 12.29633 682 ft 59 kts 121°
2026-05-07 22:57 57.66133 12.29919 685 ft 56 kts 145°
2026-05-07 22:57 57.66345 12.29823 697 ft 62 kts 316°
2026-05-07 22:58 57.66664 12.29240 678 ft 62 kts 319°
2026-05-07 22:58 57.66922 12.28510 777 ft 85 kts 287°
2026-05-07 22:58 57.66700 12.27396 877 ft 102 kts 221°
2026-05-07 22:58 57.66110 12.26688 892 ft 101 kts 212°
2026-05-07 22:59 57.65523 12.25942 889 ft 99 kts 216°
2026-05-07 22:59 57.64906 12.25705 914 ft 91 kts 154°
2026-05-07 22:59 57.64835 12.26711 705 ft 91 kts 35°
2026-05-07 22:59 57.65308 12.27111 579 ft 64 kts 25°
2026-05-07 23:00 57.65680 12.27436 506 ft 53 kts 26°
2026-05-07 23:00 57.66039 12.27760 501 ft 79 kts 26°
2026-05-07 23:00 57.66609 12.28244 603 ft 94 kts 28°
2026-05-07 23:00 57.67182 12.28841 700 ft 91 kts 26°
2026-05-07 23:01 57.67751 12.29263 677 ft 87 kts
2026-05-07 23:01 57.68192 12.28667 685 ft 86 kts 281°
2026-05-07 23:01 57.67833 12.27894 696 ft 82 kts 203°
2026-05-07 23:01 57.67324 12.27456 684 ft 82 kts 205°
2026-05-07 23:02 57.66769 12.27118 659 ft 85 kts 195°
2026-05-07 23:02 57.66193 12.26725 767 ft 93 kts 212°
2026-05-07 23:02 57.65613 12.26143 913 ft 97 kts 214°
2026-05-07 23:02 57.65133 12.25255 1079 ft 91 kts 222°
2026-05-07 23:03 57.64653 12.25186 1125 ft 74 kts 128°
2026-05-07 23:03 57.64448 12.26122 919 ft 76 kts 76°
2026-05-07 23:03 57.64838 12.26674 681 ft 72 kts 25°
2026-05-07 23:03 57.65278 12.27066 534 ft 62 kts 25°
2026-05-07 23:04 57.65637 12.27389 495 ft 72 kts 26°
2026-05-07 23:04 57.66179 12.27888 587 ft 93 kts 27°
2026-05-07 23:04 57.66714 12.28325 875 ft 84 kts 20°
2026-05-07 23:04 57.66997 12.27608 930 ft 98 kts 247°
2026-05-07 23:05 57.66453 12.26792 887 ft 105 kts 213°
2026-05-07 23:05 57.65846 12.26082 861 ft 98 kts 209°
2026-05-07 23:05 57.65240 12.25543 784 ft 93 kts 203°
2026-05-07 23:05 57.64668 12.25582 794 ft 84 kts 131°
2026-05-07 23:06 57.64717 12.26488 641 ft 70 kts 48°
2026-05-07 23:06 57.65110 12.26919 496 ft 61 kts 26°
2026-05-07 23:06 57.65506 12.27277 486 ft 85 kts 24°
2026-05-07 23:06 57.66079 12.27810 579 ft 90 kts 27°
2026-05-07 23:07 57.66629 12.28289 589 ft 86 kts 26°
2026-05-07 23:07 57.67176 12.28352 728 ft 91 kts 312°
2026-05-07 23:07 57.66937 12.27738 831 ft 78 kts 144°
2026-05-07 23:07 57.67049 12.28602 697 ft 96 kts 33°
2026-05-07 23:08 57.67672 12.29265 622 ft 104 kts 27°
2026-05-07 23:08 57.68240 12.29246 754 ft 85 kts 297°
2026-05-07 23:08 57.67958 12.28398 781 ft 89 kts 200°
2026-05-07 23:08 57.67373 12.27970 773 ft 88 kts 201°
2026-05-07 23:09 57.66832 12.27552 764 ft 81 kts 199°
2026-05-07 23:09 57.66291 12.27228 685 ft 84 kts 201°
2026-05-07 23:09 57.65753 12.26837 631 ft 83 kts 204°
2026-05-07 23:09 57.65257 12.26351 661 ft 72 kts 213°
2026-05-07 23:10 57.64794 12.25793 712 ft 84 kts 214°
2026-05-07 23:10 57.64299 12.25624 890 ft 78 kts 126°
2026-05-07 23:10 57.64546 12.26429 637 ft 89 kts 22°
2026-05-07 23:10 57.65083 12.26894 526 ft 83 kts 26°
2026-05-07 23:11 57.65645 12.27403 595 ft 96 kts 30°
2026-05-07 23:11 57.66267 12.27976 595 ft 97 kts 24°
2026-05-07 23:11 57.66837 12.28315 618 ft 81 kts 25°
2026-05-07 23:11 57.67342 12.28918 736 ft 90 kts 32°
2026-05-07 23:12 57.67695 12.29274 892 ft 85 kts 23°
2026-05-07 23:12 57.68294 12.29144 1036 ft 96 kts 321°
2026-05-07 23:12 57.68335 12.28023 1198 ft 101 kts 218°
2026-05-07 23:12 57.67729 12.27352 1233 ft 98 kts 213°
2026-05-07 23:13 57.67139 12.26762 1359 ft 100 kts 206°
2026-05-07 23:13 57.66513 12.26137 1291 ft 103 kts 208°
2026-05-07 23:13 57.65848 12.25639 1122 ft 104 kts 198°
2026-05-07 23:13 57.65172 12.25329 1093 ft 90 kts 188°
2026-05-07 23:14 57.64612 12.24984 1022 ft 73 kts 170°
2026-05-07 23:14 57.64414 12.25749 917 ft 87 kts 73°
2026-05-07 23:14 57.64825 12.26651 597 ft 92 kts 31°
2026-05-07 23:14 57.65339 12.27132 524 ft 72 kts 25°
2026-05-07 23:15 57.65746 12.27485 517 ft 59 kts 25°
2026-05-07 23:15 57.66093 12.27804 511 ft 54 kts 25°
2026-05-07 23:15 57.66422 12.28098 513 ft 52 kts 26°
2026-05-07 23:15 57.66741 12.28396 514 ft 51 kts 28°
2026-05-07 23:16 57.67061 12.28558 633 ft 57 kts 306°
2026-05-07 23:16 57.66724 12.27791 630 ft 97 kts 226°
2026-05-07 23:16 57.66203 12.27050 701 ft 98 kts 217°
2026-05-07 23:16 57.65697 12.26269 844 ft 77 kts 222°
2026-05-07 23:17 57.65227 12.25825 829 ft 80 kts 168°
2026-05-07 23:17 57.64989 12.26585 701 ft 77 kts 64°
2026-05-07 23:17 57.65408 12.27190 515 ft 74 kts 23°
2026-05-07 23:17 57.65794 12.27538 490 ft 49 kts 27°
2026-05-07 23:18 57.66086 12.27803 502 ft 47 kts 27°
2026-05-07 23:18 57.66352 12.28046 504 ft 43 kts 26°
2026-05-07 23:18 57.66615 12.28327 505 ft 42 kts 44°
2026-05-07 23:18 57.66770 12.28724 506 ft 29 kts 57°
2026-05-07 23:19 57.66791 12.28781 506 ft 0 kts 49°